Location: Newark
(15.4608°S, 41.1635°W)
Time: 23:07:50
(UTC+00:00)

S-56A Canister/Altair - All Passes

Search period start: 30 July 2021 00:00
Search period end: 09 August 2021 00:00
Orbit: 631 x 2501 km, 38.9° (Epoch: 30 July)

Date Brightness Start Highest point End Pass type
(mag) Time Alt. Az. Time Alt. Az. Time Alt. Az.
30 Jul - 03:20:45 10° NW 03:28:09 51° NE 03:33:19 10° ESE night (unlit)
30 Jul - 05:27:29 10° W 05:31:58 23° SW 05:35:45 10° SSE night (unlit)
30 Jul - 11:44:19 10° SSW 11:49:36 31° SE 11:56:57 10° E daylight
30 Jul - 13:46:53 10° WSW 13:54:05 64° NW 14:05:07 10° NE daylight
30 Jul - 15:54:13 10° WNW 16:00:16 17° NW 16:07:35 10° N daylight
31 Jul - 02:47:38 10° NNW 02:55:25 43° NE 03:00:49 10° ESE night (unlit)
31 Jul - 04:53:57 10° W 04:59:23 30° SW 05:03:40 10° SSE night (unlit)
31 Jul - 11:12:16 10° SSW 11:16:53 25° SE 11:22:57 10° E daylight
31 Jul - 13:14:25 10° WSW 13:21:09 74° NW 13:31:35 10° NE daylight
31 Jul - 15:20:49 10° WNW 15:27:00 20° NW 15:34:46 10° N daylight
01 Aug - 02:14:30 10° NNW 02:22:37 38° NE 02:28:16 10° ESE night (unlit)
01 Aug - 04:20:25 10° WNW 04:26:48 39° SW 04:31:31 10° SSE night (unlit)
01 Aug - 10:40:19 10° SSW 10:44:10 19° SE 10:48:55 10° ESE daylight
01 Aug - 12:42:00 10° SW 12:48:18 85° NW 12:58:02 10° NE daylight
01 Aug - 14:47:39 10° W 14:53:49 22° NW 15:01:49 10° N daylight
02 Aug - 01:41:21 10° NNW 01:49:44 33° NE 01:55:38 10° E visible
02 Aug - 03:46:52 10° WNW 03:54:12 50° SW 03:59:20 10° SE night (unlit)
02 Aug - 10:08:33 10° S 10:11:27 15° SSE 10:14:47 10° ESE daylight
02 Aug - 12:09:40 10° SW 12:15:33 81° SE 12:24:31 10° NE daylight
02 Aug - 14:14:38 10° W 14:20:42 24° NW 14:28:49 10° NNE daylight
03 Aug - 01:08:13 10° NNW 01:16:46 30° NE 01:22:55 10° E visible
03 Aug - 03:13:19 10° WNW 03:21:33 63° SW 03:27:06 10° SE night (unlit)
03 Aug - 05:24:39 10° SW 05:25:48 11° SSW 05:26:52 10° SSW night (unlit)
03 Aug - 09:37:15 10° SSE 09:38:42 11° SSE 09:40:13 10° SE daylight
03 Aug - 11:37:22 10° SW 11:42:52 67° SE 11:50:59 10° ENE daylight
03 Aug - 13:41:46 10° W 13:47:39 27° NW 13:55:45 10° NNE daylight
04 Aug - 00:35:06 10° NNW 00:43:43 27° NE 00:50:05 10° E visible
04 Aug - 02:39:45 10° NW 02:48:51 77° SW 02:54:50 10° SE night (unlit)
04 Aug - 04:49:50 10° WSW 04:53:01 14° SSW 04:55:48 10° S night (unlit)
04 Aug - 11:05:08 10° SW 11:10:13 53° SE 11:17:29 10° ENE daylight
04 Aug - 13:09:01 10° W 13:14:42 30° NW 13:22:40 10° NNE daylight
05 Aug - 00:02:01 10° NNW 00:10:36 24° NE 00:17:07 10° E visible
05 Aug - 02:06:10 10° NW 02:16:06 90° SSE 02:22:29 10° SE night (unlit)
05 Aug - 04:15:37 10° WSW 04:20:17 18° SSW 04:24:05 10° S night (unlit)
05 Aug - 10:32:55 10° SSW 10:37:38 42° SE 10:43:59 10° ENE daylight
05 Aug - 12:36:21 10° W 12:41:49 35° NW 12:49:35 10° NNE daylight
05 Aug - 23:29:01 10° N 23:37:25 21° NE 23:43:59 10° E visible
06 Aug - 01:32:35 10° NW 01:43:14 78° NE 01:50:05 10° SE visible
06 Aug - 03:41:31 10° W 03:47:33 24° SW 03:52:09 10° SSE night (unlit)
06 Aug - 10:00:46 10° SSW 10:05:04 32° SE 10:10:32 10° E daylight
06 Aug - 12:03:47 10° WSW 12:09:02 40° NW 12:16:30 10° NNE daylight
06 Aug - 22:56:07 10° N 23:04:09 19° NE 23:10:40 10° ENE visible
07 Aug - 00:59:00 10° NW 01:10:18 68° NE 01:17:38 10° ESE visible
07 Aug - 03:07:28 10° W 03:14:48 30° SW 03:20:07 10° SSE night (unlit)
07 Aug - 09:28:39 10° SSW 09:32:29 25° SE 09:37:03 10° E daylight
07 Aug - 11:31:16 10° WSW 11:36:18 47° NW 11:43:26 10° NE daylight
07 Aug - 22:23:23 10° N 22:30:48 17° NE 22:37:04 10° ENE visible
08 Aug - 00:25:27 10° NW 00:37:17 60° NE 00:45:05 10° ESE visible
08 Aug - 02:33:26 10° WNW 02:42:01 37° SW 02:48:00 10° SSE night (unlit)
08 Aug - 08:56:35 10° SSW 08:59:53 19° SSE 09:03:34 10° E daylight
08 Aug - 10:58:47 10° WSW 11:03:39 56° NW 11:10:23 10° NE daylight
08 Aug - 21:50:54 10° N 21:57:24 15° NE 22:03:06 10° ENE visible
